Regional Weather Roundup
Issued by NWS

Home | Current Version | Previous Version | Graphics & Text | Print | Product List | Glossary On
Versions: 1 2 3 4 5 6 7 8 9 10 11 12 13 14 15 16 17 18 19 20 21 22 23 24 25 26 27 28 29 30 31 32 33 34 35 36 37 38 39 40 41 42 43 44 45 46 47 48 49 50
131
ASUS44 KJAN 171803
RWRMS

MISSISSIPPI HOURLY WEATHER ROUNDUP
NATIONAL WEATHER SERVICE JACKSON MS
100 PM CDT THU APR 17 2014

NOTE: "FAIR: INDICATES FEW OR NO CLOUDS BELOW 12,000 FEET WITH NO
SIGNIFICANT WEATHER AND/OR OBSTRUCTIONS TO VISIBILITY.

MSZ001>002-007>008-010>013-018>021-025>028-034>036-171900-
NORTHWEST MISSISSIPPI

CITY           SKY/WX    TMP DP  RH WIND       PRES   REMARKS
CLARKSDALE       N/A     64  48  55 SE8       30.26F
CLEVELAND      FAIR      65  47  52 SE7       30.25S
GREENWOOD      PTSUNNY   66  45  46 SE8       30.25F
6HR MIN TEMP:  45; 6HR MAX TEMP:  68;

GREENVILLE     SUNNY     67  46  47 SE12      30.24F
6HR MIN TEMP:  45; 6HR MAX TEMP:  67;

GRENADA        FAIR      64  46  52 E12       30.26F
OLIVE BRANCH   PTSUNNY   64  39  39 S5        30.26F
OXFORD         FAIR      64  41  42 SW5       30.28F
TUNICA         PTCLDY    64  45  48 S7        30.26F
$$

MSZ003>006-009-014>017-022>024-029>033-037>039-171900-
NORTHEAST MISSISSIPPI

CITY           SKY/WX    TMP DP  RH WIND       PRES   REMARKS
BELMONT        FAIR      62  42  47 CALM      30.28F
COLUMBUS AFB   MOSUNNY   68  44  42 VRB7      30.28F
6HR MIN TEMP:  44; 6HR MAX TEMP:  68;

CORINTH        FAIR      64  37  36 S7        30.28F
GOLDN TRIANGLE PTSUNNY   66  46  48 E6        30.31F
STARKVILLE     FAIR      64  46  52 SE8       30.27F
TUPELO         MOSUNNY   66  44  45 MISG      30.28F
6HR MIN TEMP:  46; 6HR MAX TEMP:  66;

$$

MSZ040-058-171900-
CENTRAL MISSISSIPPI

CITY           SKY/WX    TMP DP  RH WIND       PRES   REMARKS
JACKSON INTL   CLOUDY    66  49  54 SE8       30.23F
6HR MIN TEMP:  42; 6HR MAX TEMP:  67;

JACKSON HAWKNS CLOUDY    67  48  50 E7G17     30.24F
6HR MIN TEMP:  43; 6HR MAX TEMP:  68;

MERIDIAN KEY   PTSUNNY   65  49  56 NE7       30.26F
6HR MIN TEMP:  46; 6HR MAX TEMP:  65;

MERIDIAN NAS   CLOUDY    65  48  54 E7        30.28S
6HR MIN TEMP:  42; 6HR MAX TEMP:  65;

RAYMOND        MOCLDY    66  63  88 E6        30.23S
VICKSBURG      CLOUDY    66  49  54 SE6       30.23S
6HR MIN TEMP:  47; 6HR MAX TEMP:  67;

$$

MSZ059>079-171900-
SOUTH MISSISSIPPI

CITY           SKY/WX    TMP DP  RH WIND       PRES   REMARKS
BROOKHAVEN     FAIR      64  54  68 E5        30.23F
COLUMBIA       MOCLDY    66  55  68 MISG      30.20F
HATTIESBURG    CLOUDY    65  53  65 E7        30.24F
6HR MIN TEMP:  49; 6HR MAX TEMP:  65;

MCCOMB         CLOUDY    64  53  67 SE8       30.21F
6HR MIN TEMP:  49; 6HR MAX TEMP:  65;

NATCHEZ        CLOUDY    64  50  59 E3        30.21F
PINE BELT      CLOUDY    63  50  63 E8        30.25F
6HR MIN TEMP:  46; 6HR MAX TEMP:  63;

$$

MSZ080>082-171900-
COASTAL MISSISSIPPI

CITY           SKY/WX    TMP DP  RH WIND       PRES   REMARKS
BILOXI         CLOUDY    67  57  70 SE12      30.21F
6HR MIN TEMP:  53; 6HR MAX TEMP:  67;

PASCAGOULA     CLOUDY    68  56  65 E8        30.20F
6HR MIN TEMP:  54; 6HR MAX TEMP:  69;

GULFPORT       CLOUDY    67  56  67 E10       30.20F
6HR MIN TEMP:  56; 6HR MAX TEMP:  68;

$$



USA.gov is the U.S. government's official web portal to all federal, state and local government web resources and services.